Time,TemperatureF,DewpointF,PressureIn,WindDirection,WindDirectionDegrees,WindSpeedMPH,WindSpeedGustMPH,Humidity,HourlyPrecipIn,Conditions,Clouds,dailyrainin,SoftwareType,DateUTC
2013-04-03 00:03:00,64.0,61.0,30.08,West,269,0.0,3.0,90,0.00,,,0.00,,2013-04-03 04:03:00,
2013-04-03 00:13:00,64.0,61.0,30.08,West,269,0.0,3.0,90,0.00,,,0.00,,2013-04-03 04:13:00,
2013-04-03 00:23:00,64.0,61.0,30.08,West,269,0.0,3.0,90,0.00,,,0.00,,2013-04-03 04:23:00,
2013-04-03 00:33:00,65.0,62.0,30.07,WNW,303,0.0,2.0,89,0.00,,,0.00,,2013-04-03 04:33:00,
2013-04-03 00:43:00,65.0,62.0,30.07,WNW,303,0.0,2.0,89,0.00,,,0.00,,2013-04-03 04:43:00,
2013-04-03 00:53:00,64.0,61.0,30.07,WNW,303,0.0,1.0,89,0.00,,,0.00,,2013-04-03 04:53:00,
2013-04-03 01:03:00,64.0,61.0,30.08,WNW,303,0.0,0.0,90,0.00,,,0.00,,2013-04-03 05:03:00,
2013-04-03 01:12:00,64.0,61.0,30.08,WNW,303,0.0,0.0,90,0.00,,,0.00,,2013-04-03 05:12:00,
2013-04-03 01:22:00,64.0,61.0,30.07,WNW,303,0.0,0.0,91,0.00,,,0.00,,2013-04-03 05:22:00,
2013-04-03 01:32:00,64.0,61.0,30.07,WNW,303,0.0,0.0,91,0.00,,,0.00,,2013-04-03 05:32:00,
2013-04-03 01:42:00,64.0,61.0,30.07,WNW,303,0.0,0.0,91,0.00,,,0.00,,2013-04-03 05:42:00,
2013-04-03 01:53:00,64.0,61.0,30.06,WNW,303,0.0,0.0,91,0.00,,,0.00,,2013-04-03 05:53:00,
2013-04-03 02:02:00,63.0,60.0,30.06,WNW,303,0.0,0.0,91,0.00,,,0.00,,2013-04-03 06:02:00,
2013-04-03 02:12:00,63.0,60.0,30.06,WNW,303,0.0,0.0,91,0.00,,,0.00,,2013-04-03 06:12:00,
2013-04-03 02:22:00,63.0,60.0,30.05,WNW,303,0.0,0.0,91,0.00,,,0.00,,2013-04-03 06:22:00,
2013-04-03 02:32:00,63.0,61.0,30.04,WNW,303,0.0,0.0,93,0.00,,,0.00,,2013-04-03 06:32:00,
2013-04-03 02:42:00,63.0,61.0,30.04,WNW,303,0.0,0.0,93,0.00,,,0.00,,2013-04-03 06:42:00,
2013-04-03 02:52:00,63.0,61.0,30.03,WNW,303,0.0,0.0,93,0.00,,,0.00,,2013-04-03 06:52:00,
2013-04-03 03:02:00,62.0,60.0,30.03,WNW,303,0.0,0.0,93,0.00,,,0.00,,2013-04-03 07:02:00,
2013-04-03 03:12:00,62.0,60.0,30.03,WNW,303,0.0,0.0,93,0.00,,,0.00,,2013-04-03 07:12:00,
2013-04-03 03:23:00,62.0,60.0,30.01,NE,40,0.0,2.0,93,0.00,,,0.00,,2013-04-03 07:23:00,
2013-04-03 03:33:00,62.0,60.0,30.01,NE,40,0.0,1.0,94,0.00,,,0.00,,2013-04-03 07:33:00,
2013-04-03 03:42:00,62.0,60.0,30.01,NE,40,0.0,1.0,94,0.00,,,0.00,,2013-04-03 07:42:00,
2013-04-03 03:53:00,62.0,60.0,30.00,East,95,0.0,3.0,94,0.00,,,0.00,,2013-04-03 07:53:00,
2013-04-03 04:03:00,62.0,61.0,30.00,East,96,0.0,2.0,95,0.00,,,0.00,,2013-04-03 08:03:00,
2013-04-03 04:12:00,62.0,61.0,30.00,East,96,0.0,2.0,95,0.00,,,0.00,,2013-04-03 08:12:00,
2013-04-03 04:22:00,62.0,61.0,30.00,East,87,0.0,3.0,95,0.00,,,0.00,,2013-04-03 08:22:00,
2013-04-03 04:32:00,63.0,62.0,30.00,ESE,114,2.0,7.0,95,0.00,,,0.00,,2013-04-03 08:32:00,
2013-04-03 04:43:00,63.0,62.0,30.00,ESE,114,2.0,7.0,95,0.00,,,0.00,,2013-04-03 08:43:00,
2013-04-03 04:52:00,64.0,62.0,30.00,ESE,119,2.0,5.0,92,0.00,,,0.00,,2013-04-03 08:52:00,
2013-04-03 05:02:00,65.0,62.0,30.00,ESE,116,2.0,5.0,91,0.00,,,0.00,,2013-04-03 09:02:00,
2013-04-03 05:12:00,65.0,62.0,30.00,ESE,116,2.0,5.0,91,0.00,,,0.00,,2013-04-03 09:12:00,
2013-04-03 05:22:00,65.0,62.0,30.01,SE,126,1.0,4.0,91,0.00,,,0.00,,2013-04-03 09:22:00,
2013-04-03 05:33:00,65.0,62.0,30.00,East,93,3.0,6.0,91,0.00,,,0.00,,2013-04-03 09:33:00,
2013-04-03 05:43:00,65.0,62.0,30.00,East,93,3.0,6.0,91,0.00,,,0.00,,2013-04-03 09:43:00,
2013-04-03 05:53:00,65.0,62.0,30.00,East,93,3.0,6.0,91,0.00,,,0.00,,2013-04-03 09:53:00,
2013-04-03 06:03:00,65.0,63.0,29.99,East,95,3.0,7.0,92,0.00,,,0.00,,2013-04-03 10:03:00,
2013-04-03 06:12:00,65.0,63.0,29.99,East,95,3.0,7.0,92,0.00,,,0.00,,2013-04-03 10:12:00,
2013-04-03 06:22:00,66.0,64.0,29.99,East,86,2.0,9.0,92,0.00,,,0.00,,2013-04-03 10:22:00,
2013-04-03 06:33:00,66.0,64.0,29.99,ESE,107,2.0,8.0,92,0.00,,,0.00,,2013-04-03 10:33:00,
2013-04-03 06:43:00,66.0,64.0,29.99,ESE,107,2.0,8.0,92,0.00,,,0.00,,2013-04-03 10:43:00,
2013-04-03 06:53:00,66.0,64.0,29.99,ESE,107,3.0,8.0,93,0.00,,,0.00,,2013-04-03 10:53:00,
2013-04-03 07:02:00,66.0,64.0,30.00,SE,146,3.0,7.0,94,0.00,,,0.00,,2013-04-03 11:02:00,
2013-04-03 07:12:00,66.0,64.0,30.00,SE,146,3.0,7.0,94,0.00,,,0.00,,2013-04-03 11:12:00,
2013-04-03 07:23:00,66.0,64.0,30.00,ESE,119,1.0,7.0,94,0.00,,,0.00,,2013-04-03 11:23:00,
2013-04-03 07:32:00,66.0,64.0,30.00,ESE,119,4.0,8.0,94,0.00,,,0.00,,2013-04-03 11:32:00,
2013-04-03 07:42:00,66.0,64.0,30.00,ESE,119,4.0,8.0,94,0.00,,,0.00,,2013-04-03 11:42:00,
2013-04-03 07:53:00,66.0,64.0,30.01,East,97,2.0,7.0,94,0.00,,,0.00,,2013-04-03 11:53:00,
2013-04-03 08:02:00,66.0,64.0,30.01,ESE,117,3.0,5.0,94,0.00,,,0.00,,2013-04-03 12:02:00,
2013-04-03 08:13:00,66.0,64.0,30.01,ESE,117,3.0,5.0,94,0.00,,,0.00,,2013-04-03 12:13:00,
2013-04-03 08:22:00,67.0,65.0,30.01,SE,142,3.0,10.0,93,0.00,,,0.00,,2013-04-03 12:22:00,
2013-04-03 08:33:00,67.0,65.0,30.02,ENE,78,3.0,9.0,93,0.00,,,0.00,,2013-04-03 12:33:00,
2013-04-03 08:42:00,67.0,65.0,30.02,ENE,78,3.0,9.0,93,0.00,,,0.00,,2013-04-03 12:42:00,
2013-04-03 08:52:00,67.0,65.0,30.02,ENE,78,3.0,9.0,93,0.00,,,0.00,,2013-04-03 12:52:00,
2013-04-03 09:02:00,69.0,66.0,30.02,ESE,108,2.0,12.0,89,0.00,,,0.00,,2013-04-03 13:02:00,
2013-04-03 09:12:00,69.0,66.0,30.02,ESE,108,2.0,12.0,89,0.00,,,0.00,,2013-04-03 13:12:00,
2013-04-03 09:22:00,71.0,67.0,30.02,ESE,119,7.0,11.0,86,0.00,,,0.00,,2013-04-03 13:22:00,
2013-04-03 09:32:00,71.0,67.0,30.02,East,85,4.0,11.0,87,0.00,,,0.00,,2013-04-03 13:32:00,
2013-04-03 09:42:00,71.0,67.0,30.02,East,85,4.0,11.0,87,0.00,,,0.00,,2013-04-03 13:42:00,
2013-04-03 09:52:00,72.0,67.0,30.02,East,88,5.0,-999.0,85,-99.99,,,-99.99,,2013-04-03 13:52:00,
2013-04-03 10:02:00,74.0,68.0,30.02,SSE,159,5.0,12.0,83,0.00,,,0.00,,2013-04-03 14:02:00,
2013-04-03 10:13:00,74.0,68.0,30.02,SSE,159,5.0,12.0,83,0.00,,,0.00,,2013-04-03 14:13:00,
2013-04-03 10:22:00,74.0,68.0,30.02,East,85,3.0,13.0,81,0.00,,,0.00,,2013-04-03 14:22:00,
2013-04-03 10:32:00,75.0,68.0,30.02,SSE,148,6.0,14.0,78,0.00,,,0.00,,2013-04-03 14:32:00,
2013-04-03 10:43:00,75.0,68.0,30.02,SSE,148,6.0,14.0,78,0.00,,,0.00,,2013-04-03 14:43:00,
2013-04-03 10:52:00,76.0,68.0,30.03,East,96,5.0,16.0,76,0.00,,,0.00,,2013-04-03 14:52:00,
2013-04-03 11:02:00,77.0,68.0,30.02,East,80,5.0,14.0,74,0.00,,,0.00,,2013-04-03 15:02:00,
2013-04-03 11:12:00,77.0,68.0,30.02,East,80,5.0,14.0,74,0.00,,,0.00,,2013-04-03 15:12:00,
2013-04-03 11:23:00,77.0,68.0,30.02,East,80,5.0,14.0,74,0.00,,,0.00,,2013-04-03 15:23:00,
2013-04-03 11:33:00,79.0,67.0,30.01,ESE,107,6.0,13.0,67,0.00,,,0.00,,2013-04-03 15:33:00,
2013-04-03 11:43:00,79.0,67.0,30.01,ESE,107,6.0,13.0,67,0.00,,,0.00,,2013-04-03 15:43:00,
2013-04-03 11:53:00,77.0,66.0,30.00,SSE,150,6.0,16.0,70,0.00,,,0.00,,2013-04-03 15:53:00,
2013-04-03 12:13:00,79.0,68.0,30.00,SSE,161,4.0,13.0,68,0.00,,,0.00,,2013-04-03 16:13:00,
2013-04-03 12:25:00,80.0,68.0,30.00,SE,142,6.0,17.0,66,0.00,,,0.00,,2013-04-03 16:25:00,
2013-04-03 12:33:00,82.0,68.0,30.00,South,174,5.0,11.0,63,0.00,,,0.00,,2013-04-03 16:33:00,
2013-04-03 12:44:00,82.0,68.0,30.00,South,174,5.0,11.0,63,0.00,,,0.00,,2013-04-03 16:44:00,
2013-04-03 12:53:00,81.0,67.0,29.99,SE,126,3.0,11.0,63,0.00,,,0.00,,2013-04-03 16:53:00,
2013-04-03 13:03:00,82.0,67.0,29.99,ENE,65,5.0,12.0,60,0.00,,,0.00,,2013-04-03 17:03:00,
2013-04-03 13:14:00,82.0,67.0,29.99,ENE,65,5.0,12.0,60,0.00,,,0.00,,2013-04-03 17:14:00,
2013-04-03 13:23:00,83.0,67.0,29.98,SSE,155,7.0,13.0,59,0.00,,,0.00,,2013-04-03 17:23:00,
2013-04-03 13:33:00,83.0,67.0,29.99,ESE,105,5.0,10.0,58,0.00,,,0.00,,2013-04-03 17:33:00,
2013-04-03 13:46:00,83.0,67.0,29.99,ESE,105,5.0,10.0,58,0.00,,,0.00,,2013-04-03 17:46:00,
2013-04-03 13:54:00,83.0,68.0,29.99,SE,130,3.0,10.0,60,0.00,,,0.00,,2013-04-03 17:54:00,
2013-04-03 14:02:00,83.0,67.0,29.99,East,96,4.0,9.0,59,0.00,,,0.00,,2013-04-03 18:02:00,
2013-04-03 14:13:00,83.0,67.0,29.99,East,96,4.0,9.0,59,0.00,,,0.00,,2013-04-03 18:13:00,
2013-04-03 14:23:00,82.0,66.0,29.98,ESE,102,4.0,13.0,59,0.00,,,0.00,,2013-04-03 18:23:00,
2013-04-03 14:33:00,83.0,67.0,29.99,East,86,4.0,10.0,59,0.00,,,0.00,,2013-04-03 18:33:00,
2013-04-03 14:43:00,83.0,67.0,29.99,East,86,4.0,10.0,59,0.00,,,0.00,,2013-04-03 18:43:00,
2013-04-03 14:52:00,83.0,67.0,29.99,East,86,4.0,10.0,59,0.00,,,0.00,,2013-04-03 18:52:00,
2013-04-03 15:03:00,84.0,68.0,29.98,SW,215,4.0,10.0,59,0.00,,,0.00,,2013-04-03 19:03:00,
2013-04-03 15:12:00,84.0,68.0,29.98,SW,215,4.0,10.0,59,0.00,,,0.00,,2013-04-03 19:12:00,
2013-04-03 15:22:00,83.0,65.0,29.98,SSE,162,2.0,13.0,55,0.00,,,0.00,,2013-04-03 19:22:00,
2013-04-03 15:32:00,83.0,65.0,29.98,West,263,1.0,9.0,54,0.00,,,0.00,,2013-04-03 19:32:00,
2013-04-03 15:42:00,83.0,65.0,29.98,West,263,1.0,9.0,54,0.00,,,0.00,,2013-04-03 19:42:00,
2013-04-03 15:52:00,81.0,63.0,29.96,WSW,246,4.0,8.0,54,0.00,,,0.00,,2013-04-03 19:52:00,
2013-04-03 16:02:00,81.0,63.0,29.96,WSW,246,4.0,8.0,54,0.00,,,0.00,,2013-04-03 20:02:00,
2013-04-03 16:13:00,81.0,63.0,29.96,WSW,246,4.0,8.0,54,0.00,,,0.00,,2013-04-03 20:13:00,
2013-04-03 16:23:00,80.0,62.0,29.97,SW,220,4.0,12.0,54,0.00,,,0.00,,2013-04-03 20:23:00,
2013-04-03 16:33:00,79.0,61.0,29.97,SSW,202,1.0,8.0,54,0.00,,,0.00,,2013-04-03 20:33:00,
2013-04-03 16:42:00,79.0,61.0,29.97,SSW,202,1.0,8.0,54,0.00,,,0.00,,2013-04-03 20:42:00,
2013-04-03 16:53:00,78.0,62.0,29.96,SW,223,3.0,11.0,59,0.00,,,0.00,,2013-04-03 20:53:00,
2013-04-03 17:02:00,77.0,64.0,29.96,SW,236,2.0,11.0,64,0.00,,,0.00,,2013-04-03 21:02:00,
2013-04-03 17:12:00,77.0,64.0,29.96,SW,236,2.0,11.0,64,0.00,,,0.00,,2013-04-03 21:12:00,
2013-04-03 17:22:00,77.0,64.0,29.96,SW,227,1.0,9.0,65,0.00,,,0.00,,2013-04-03 21:22:00,
2013-04-03 17:33:00,77.0,64.0,29.96,WSW,238,1.0,9.0,65,0.00,,,0.00,,2013-04-03 21:33:00,
2013-04-03 17:42:00,77.0,64.0,29.96,WSW,238,1.0,9.0,65,0.00,,,0.00,,2013-04-03 21:42:00,
2013-04-03 17:52:00,76.0,64.0,29.96,SW,234,2.0,6.0,67,0.00,,,0.00,,2013-04-03 21:52:00,
2013-04-03 18:02:00,76.0,65.0,29.96,SW,234,1.0,5.0,68,0.00,,,0.00,,2013-04-03 22:02:00,
2013-04-03 18:13:00,76.0,65.0,29.96,SW,234,1.0,5.0,68,0.00,,,0.00,,2013-04-03 22:13:00,
2013-04-03 18:22:00,76.0,65.0,29.94,SE,134,1.0,4.0,69,0.00,,,0.00,,2013-04-03 22:22:00,
2013-04-03 18:33:00,76.0,65.0,29.94,SE,138,1.0,8.0,68,0.00,,,0.00,,2013-04-03 22:33:00,
2013-04-03 18:42:00,76.0,65.0,29.94,SE,138,1.0,8.0,68,0.00,,,0.00,,2013-04-03 22:42:00,
2013-04-03 18:52:00,75.0,64.0,29.96,WSW,243,0.0,6.0,69,0.00,,,0.00,,2013-04-03 22:52:00,
2013-04-03 19:02:00,75.0,65.0,29.96,SSW,212,1.0,7.0,72,0.00,,,0.00,,2013-04-03 23:02:00,
2013-04-03 19:12:00,75.0,65.0,29.96,SSW,212,1.0,7.0,72,0.00,,,0.00,,2013-04-03 23:12:00,
2013-04-03 19:22:00,75.0,66.0,29.95,South,182,0.0,6.0,73,0.00,,,0.00,,2013-04-03 23:22:00,
2013-04-03 19:32:00,75.0,66.0,29.94,SE,126,1.0,6.0,74,0.00,,,0.00,,2013-04-03 23:32:00,
2013-04-03 19:43:00,75.0,66.0,29.94,SE,126,1.0,6.0,74,0.00,,,0.00,,2013-04-03 23:43:00,
2013-04-03 19:53:00,75.0,66.0,29.95,ESE,121,2.0,6.0,74,0.00,,,0.00,,2013-04-03 23:53:00,
2013-04-03 20:03:00,75.0,66.0,29.95,ESE,121,2.0,6.0,74,0.00,,,0.00,,2013-04-04 00:03:00,
2013-04-03 20:12:00,75.0,66.0,29.95,ESE,121,2.0,6.0,74,0.00,,,0.00,,2013-04-04 00:12:00,
2013-04-03 20:22:00,74.0,66.0,29.96,East,92,1.0,7.0,76,0.00,,,0.00,,2013-04-04 00:22:00,
2013-04-03 20:32:00,74.0,66.0,29.96,East,92,1.0,5.0,76,0.00,,,0.00,,2013-04-04 00:32:00,
2013-04-03 20:43:00,74.0,66.0,29.96,East,92,1.0,5.0,76,0.00,,,0.00,,2013-04-04 00:43:00,
2013-04-03 20:52:00,74.0,66.0,29.99,SSE,155,2.0,5.0,77,0.00,,,0.00,,2013-04-04 00:52:00,
2013-04-03 21:02:00,74.0,66.0,29.99,SSE,155,2.0,5.0,77,0.00,,,0.00,,2013-04-04 01:02:00,
2013-04-03 21:12:00,74.0,66.0,29.99,SSE,155,2.0,5.0,77,0.00,,,0.00,,2013-04-04 01:12:00,
2013-04-03 21:22:00,72.0,66.0,30.00,SW,227,1.0,3.0,81,0.01,,,0.01,,2013-04-04 01:22:00,
2013-04-03 21:32:00,72.0,66.0,30.00,SW,227,1.0,3.0,81,0.01,,,0.01,,2013-04-04 01:32:00,
2013-04-03 21:43:00,72.0,66.0,30.00,SW,227,1.0,3.0,81,0.01,,,0.01,,2013-04-04 01:43:00,
2013-04-03 21:53:00,71.0,67.0,29.98,East,85,1.0,4.0,87,0.01,,,0.01,,2013-04-04 01:53:00,
2013-04-03 22:02:00,71.0,68.0,30.01,NE,55,0.0,2.0,89,0.00,,,0.01,,2013-04-04 02:02:00,
2013-04-03 22:12:00,71.0,68.0,30.01,NE,55,0.0,2.0,89,0.00,,,0.01,,2013-04-04 02:12:00,
2013-04-03 22:22:00,71.0,68.0,30.02,NE,38,0.0,2.0,90,0.01,,,0.02,,2013-04-04 02:22:00,
2013-04-03 22:32:00,70.0,67.0,30.00,ESE,107,4.0,9.0,90,0.02,,,0.03,,2013-04-04 02:32:00,
2013-04-03 22:42:00,70.0,67.0,30.00,ESE,107,4.0,9.0,90,0.02,,,0.03,,2013-04-04 02:42:00,
2013-04-03 22:52:00,70.0,67.0,30.00,ESE,107,4.0,9.0,90,0.02,,,0.03,,2013-04-04 02:52:00,
2013-04-03 23:02:00,70.0,68.0,30.01,NE,50,0.0,3.0,92,0.03,,,0.04,,2013-04-04 03:02:00,
2013-04-03 23:12:00,70.0,68.0,30.01,NE,50,0.0,3.0,92,0.03,,,0.04,,2013-04-04 03:12:00,
2013-04-03 23:22:00,70.0,68.0,29.99,ESE,109,2.0,6.0,93,0.02,,,0.04,,2013-04-04 03:22:00,
2013-04-03 23:33:00,70.0,68.0,29.99,ESE,109,2.0,6.0,93,0.02,,,0.04,,2013-04-04 03:33:00,
2013-04-03 23:45:00,70.0,68.0,29.99,ESE,109,2.0,6.0,93,0.02,,,0.04,,2013-04-04 03:45:00,
2013-04-03 23:53:00,70.0,68.0,29.97,SE,144,4.0,11.0,93,0.01,,,0.04,,2013-04-04 03:53:00,